This demonstration page uses our WeatherBlox Daily Observations layout. Learn more.

Left ArrowRight Arrow

53.62937, 11.41316

Hourly Observations for June 28, 2017

Temp ( °F °C ) Dew Point ( °F °C ) Humidity (%) Winds ( mph kmh ) Pressure ( in mb ) Visibility ( mi km ) Precip ( " mm )
6:20 am 06:20 Mostly Sunny 57 14 52 11 82 82 E 10 17 29.68 1005 7 11 N/A
6:50 am 06:50 Mostly Sunny 57 14 52 11 82 82 E 9 15 29.68 1005 7 11 N/A
7:20 am 07:20 Mostly Sunny 59 15 52 11 77 77 ENE 10 17 29.68 1005 7 11 N/A
7:50 am 07:50 Mostly Sunny 61 16 54 12 77 77 ENE 12 19 29.68 1005 7 11 N/A
8:50 am 08:50 Mostly Sunny 64 18 54 12 68 68 ENE 9 15 29.65 1004 7 11 N/A
9:20 am 09:20 Mostly Sunny 66 19 54 12 64 64 E 15 24 29.65 1004 7 11 N/A
10:20 am 10:20 Mostly Sunny 68 20 55 13 64 64 ENE 13 20 29.62 1003 7 11 N/A
10:50 am 10:50 Mostly Sunny 68 20 54 12 60 60 E 15 24 29.62 1003 7 11 N/A
11:20 am 11:20 Mostly Sunny 70 21 55 13 60 60 E 16 26 29.62 1003 7 11 N/A
11:50 am 11:50 Mostly Sunny 72 22 55 13 57 57 E 14 22 29.59 1002 7 11 N/A
12:20 pm 12:20 Mostly Sunny 73 23 57 14 57 57 ENE 15 24 29.59 1002 7 11 N/A
12:50 pm 12:50 Mostly Sunny 73 23 57 14 57 57 E 16 26 29.56 1001 7 11 N/A
1:20 pm 13:20 Mostly Sunny 75 24 57 14 54 54 E 17 28 29.56 1001 7 11 N/A
1:50 pm 13:50 Mostly Sunny 75 24 57 14 54 54 E 16 26 29.53 1000 7 11 N/A
2:20 pm 14:20 Mostly Sunny 77 25 57 14 51 51 E 15 24 29.53 1000 7 11 N/A
2:50 pm 14:50 Mostly Sunny 77 25 59 15 54 54 E 15 24 29.53 1000 7 11 N/A
3:20 pm 15:20 Partly Cloudy 77 25 59 15 54 54 E 15 24 29.50 999 30 48 N/A
3:50 pm 15:50 Mostly Cloudy 77 25 61 16 57 57 E 14 22 29.50 999 30 48 N/A
4:20 pm 16:20 Mostly Cloudy 77 25 61 16 57 57 E 14 22 29.50 999 30 48 N/A
4:50 pm 16:50 Mostly Cloudy 77 25 61 16 57 57 E 14 22 29.47 998 30 48 N/A
5:20 pm 17:20 Mostly Sunny 77 25 63 17 61 61 E 14 22 29.47 998 7 11 N/A
5:50 pm 17:50 Mostly Sunny 75 24 61 16 61 61 E 15 24 29.44 997 7 11 N/A

Powered by AerisWeather